Location: Unspecified
(52.4292°N, 19.3359°E)
Time: 15:14:16
(UTC+01:00)

A-11 Canister half - Pass Details

Date: 14 October 2025
Orbit: 1526 x 1682 km, 47.3° (Epoch: 13 November)

Event Time Altitude Azimuth Distance (km) Brightness Sun altitude
Exits shadow 01:42:05 12° 110° (ESE) 3,506 10.9 -43.3°
Drops below altitude 10° 01:43:46 10° 100° (E) 3,694 11.1 -43.2°
Sets 01:48:51 0° 77° (ENE) 4,682 12.0 -42.8°
